| time (UTC) | temp F | wind direction | speed MPH | gust MPH | rain 1hr in | rain 24hr in | rain mn in | humidity % | barometer mb |
| 20260904140615 | 52 | 158 | 2.0 | 4.0 | 0.01 | 0.29 | 0.05 | 83 | 1013.6 |
| 20260904135616 | 52 | 0.0 | 0.0 | 0.01 | 0.30 | 0.04 | 83 | 1013.4 | |
| 20260904134615 | 52 | 158 | 2.0 | 4.0 | 0.01 | 0.32 | 0.04 | 83 | 1013.5 |
| 20260904133615 | 51 | 158 | 4.0 | 5.0 | 0.01 | 0.32 | 0.04 | 83 | 1013.5 |
| 20260904132615 | 51 | 180 | 3.0 | 5.0 | 0.02 | 0.32 | 0.04 | 83 | 1013.4 |
| 20260904131615 | 51 | 135 | 2.0 | 3.0 | 0.03 | 0.33 | 0.04 | 83 | 1013.1 |
| 20260904130615 | 51 | 90 | 1.0 | 3.0 | 0.04 | 0.33 | 0.04 | 83 | 1012.9 |
| 20260904125657 | 51 | 135 | 2.0 | 3.0 | 0.03 | 0.32 | 0.03 | 83 | 1012.8 |
| 20260904124617 | 52 | 90 | 2.0 | 3.0 | 0.03 | 0.32 | 0.03 | 83 | 1012.8 |
| 20260904123617 | 52 | 90 | 1.0 | 1.0 | 0.03 | 0.32 | 0.03 | 83 | 1012.8 |
| 20260904122617 | 52 | 158 | 1.0 | 2.0 | 0.02 | 0.31 | 0.02 | 83 | 1012.9 |
| 20260904121617 | 52 | 135 | 2.0 | 3.0 | 0.01 | 0.30 | 0.01 | 83 | 1012.9 |
| 20260904120637 | 53 | 135 | 5.0 | 9.0 | 0.00 | 0.29 | 0.00 | 83 | 1012.9 |
| 20260904115617 | 53 | 158 | 5.0 | 8.0 | 0.00 | 0.29 | 0.00 | 83 | 1012.9 |
| 20260904114617 | 53 | 135 | 6.0 | 9.0 | 0.00 | 0.29 | 0.00 | 83 | 1012.8 |
| 20260904113617 | 53 | 158 | 4.0 | 5.0 | 0.00 | 0.29 | 0.00 | 82 | 1012.7 |
| 20260904112615 | 53 | 135 | 3.0 | 4.0 | 0.00 | 0.29 | 0.00 | 81 | 1012.6 |
| 20260904111617 | 53 | 135 | 6.0 | 9.0 | 0.00 | 0.29 | 0.00 | 81 | 1012.6 |
| 20260904110617 | 52 | 135 | 7.0 | 10.0 | 0.00 | 0.29 | 0.00 | 80 | 1012.5 |
| 20260904105638 | 52 | 135 | 3.0 | 4.0 | 0.00 | 0.29 | 0.00 | 80 | 1012.4 |
| 20260904104617 | 52 | 135 | 4.0 | 6.0 | 0.00 | 0.29 | 0.00 | 80 | 1012.3 |
| 20260904103617 | 52 | 135 | 4.0 | 5.0 | 0.00 | 0.29 | 0.00 | 81 | 1012.3 |
| 20260904102637 | 53 | 135 | 4.0 | 6.0 | 0.00 | 0.29 | 0.00 | 81 | 1012.3 |
| 20260904101617 | 53 | 113 | 2.0 | 3.0 | 0.00 | 0.29 | 0.00 | 81 | 1012.1 |
| 20260904100617 | 53 | 135 | 3.0 | 3.0 | 0.00 | 0.29 | 0.00 | 81 | 1012.2 |
| 20260904095617 | 53 | 135 | 2.0 | 2.0 | 0.00 | 0.29 | 0.00 | 80 | 1012.2 |
| 20260904094617 | 52 | 135 | 4.0 | 5.0 | 0.00 | 0.29 | 0.00 | 79 | 1012.1 |
| 20260904093617 | 52 | 135 | 5.0 | 7.0 | 0.00 | 0.29 | 0.00 | 78 | 1012.1 |
| 20260904092616 | 52 | 135 | 2.0 | 3.0 | 0.00 | 0.29 | 0.00 | 78 | 1011.9 |
| 20260904091637 | 52 | 158 | 3.0 | 4.0 | 0.00 | 0.29 | 0.00 | 78 | 1011.9 |
| 20260904090616 | 52 | 135 | 2.0 | 3.0 | 0.00 | 0.29 | 0.00 | 78 | 1012.0 |
| 20260904085617 | 52 | 158 | 3.0 | 5.0 | 0.00 | 0.29 | 0.00 | 78 | 1012.1 |
| 20260904084617 | 52 | 135 | 2.0 | 3.0 | 0.00 | 0.29 | 0.00 | 78 | 1012.0 |
| 20260904083616 | 52 | 135 | 4.0 | 5.0 | 0.00 | 0.29 | 0.00 | 78 | 1012.0 |
| 20260904082617 | 52 | 158 | 2.0 | 3.0 | 0.00 | 0.29 | 0.00 | 78 | 1012.0 |
| 20260904081637 | 52 | 90 | 2.0 | 3.0 | 0.00 | 0.29 | 0.00 | 78 | 1011.9 |
| 20260904080616 | 52 | 90 | 1.0 | 3.0 | 0.00 | 0.30 | 0.00 | 78 | 1011.9 |
| 20260904075617 | 52 | 90 | 3.0 | 4.0 | 0.00 | 0.30 | 0.00 | 78 | 1011.9 |
| 20260904074616 | 53 | 90 | 3.0 | 4.0 | 0.00 | 0.30 | 0.00 | 78 | 1012.0 |
| 20260904073617 | 53 | 90 | 2.0 | 4.0 | 0.00 | 0.30 | 0.00 | 79 | 1012.1 |
| 20260904072617 | 53 | 90 | 3.0 | 6.0 | 0.00 | 0.30 | 0.00 | 79 | 1012.0 |
| 20260904065615 | 53 | 113 | 2.0 | 6.0 | 0.00 | 0.30 | 0.30 | 80 | 1012.1 |
| 20260904064615 | 53 | 113 | 2.0 | 3.0 | 0.00 | 0.30 | 0.30 | 79 | 1012.1 |
| 20260904063617 | 54 | 90 | 2.0 | 3.0 | 0.00 | 0.31 | 0.30 | 80 | 1012.2 |
| 20260904062617 | 54 | 113 | 2.0 | 3.0 | 0.00 | 0.31 | 0.30 | 80 | 1012.2 |
| 20260904061617 | 54 | 0.0 | 1.0 | 0.00 | 0.31 | 0.30 | 80 | 1012.2 | |
| 20260904060617 | 54 | 113 | 1.0 | 2.0 | 0.00 | 0.31 | 0.30 | 80 | 1012.2 |
| 20260904055637 | 55 | 135 | 2.0 | 3.0 | 0.00 | 0.31 | 0.30 | 80 | 1012.1 |
| 20260904054617 | 54 | 135 | 3.0 | 4.0 | 0.00 | 0.31 | 0.30 | 79 | 1012.3 |
| 20260904053617 | 54 | 135 | 2.0 | 2.0 | 0.00 | 0.31 | 0.30 | 78 | 1012.3 |
| 20260904052617 | 54 | 135 | 1.0 | 1.0 | 0.00 | 0.31 | 0.30 | 78 | 1012.2 |
| 20260904051617 | 54 | 158 | 2.0 | 3.0 | 0.00 | 0.31 | 0.30 | 77 | 1012.2 |
| 20260904050637 | 54 | 113 | 1.0 | 2.0 | 0.00 | 0.31 | 0.30 | 77 | 1012.2 |
| 20260904045617 | 54 | 158 | 2.0 | 3.0 | 0.00 | 0.31 | 0.30 | 76 | 1012.1 |
| 20260904044617 | 54 | 135 | 3.0 | 4.0 | 0.00 | 0.31 | 0.30 | 76 | 1012.0 |
| 20260904043617 | 54 | 135 | 2.0 | 3.0 | 0.00 | 0.31 | 0.30 | 76 | 1012.1 |
| 20260904042617 | 54 | 135 | 2.0 | 3.0 | 0.00 | 0.31 | 0.30 | 76 | 1012.1 |
| 20260904041617 | 54 | 135 | 2.0 | 3.0 | 0.00 | 0.31 | 0.30 | 76 | 1012.1 |
| 20260904040617 | 54 | 135 | 2.0 | 3.0 | 0.00 | 0.31 | 0.30 | 76 | 1012.1 |
| 20260904035617 | 54 | 90 | 1.0 | 2.0 | 0.00 | 0.31 | 0.30 | 76 | 1012.1 |
| 20260904034657 | 54 | 68 | 2.0 | 3.0 | 0.00 | 0.31 | 0.30 | 76 | 1012.0 |
| 20260904033617 | 54 | 90 | 2.0 | 4.0 | 0.00 | 0.31 | 0.30 | 76 | 1011.9 |
| 20260904032636 | 54 | 90 | 2.0 | 3.0 | 0.00 | 0.31 | 0.30 | 76 | 1011.7 |
| 20260904031617 | 54 | 90 | 1.0 | 3.0 | 0.00 | 0.31 | 0.30 | 76 | 1011.7 |
| 20260904030637 | 54 | 90 | 1.0 | 3.0 | 0.00 | 0.31 | 0.30 | 76 | 1011.6 |
| 20260904025636 | 54 | 90 | 1.0 | 2.0 | 0.00 | 0.31 | 0.30 | 76 | 1011.6 |
| 20260904024616 | 55 | 113 | 1.0 | 2.0 | 0.00 | 0.31 | 0.30 | 76 | 1011.6 |
| 20260904023637 | 55 | 90 | 1.0 | 1.0 | 0.00 | 0.31 | 0.30 | 76 | 1011.5 |
| 20260904022616 | 55 | 113 | 1.0 | 4.0 | 0.00 | 0.31 | 0.30 | 76 | 1011.4 |
| 20260904021616 | 55 | 90 | 2.0 | 2.0 | 0.00 | 0.31 | 0.30 | 76 | 1011.4 |
| 20260904020657 | 55 | 90 | 2.0 | 3.0 | 0.00 | 0.31 | 0.30 | 76 | 1011.5 |
| 20260904015616 | 55 | 135 | 2.0 | 3.0 | 0.00 | 0.31 | 0.30 | 76 | 1011.5 |
| 20260904014616 | 55 | 113 | 2.0 | 2.0 | 0.00 | 0.31 | 0.30 | 76 | 1011.5 |
| 20260904013616 | 55 | 113 | 2.0 | 3.0 | 0.00 | 0.31 | 0.30 | 75 | 1011.6 |
| 20260904012616 | 55 | 90 | 2.0 | 3.0 | 0.00 | 0.31 | 0.30 | 75 | 1011.7 |
| 20260904011637 | 55 | 90 | 1.0 | 3.0 | 0.00 | 0.31 | 0.30 | 75 | 1011.8 |
| 20260904010617 | 55 | 113 | 1.0 | 3.0 | 0.00 | 0.31 | 0.30 | 75 | 1011.7 |
| 20260904005617 | 56 | 0.0 | 1.0 | 0.00 | 0.31 | 0.30 | 75 | 1011.7 | |
| 20260904004616 | 56 | 0.0 | 1.0 | 0.00 | 0.32 | 0.30 | 76 | 1011.9 | |
| 20260904003616 | 56 | 0.0 | 1.0 | 0.01 | 0.32 | 0.30 | 76 | 1011.9 | |
| 20260904002616 | 57 | 68 | 1.0 | 2.0 | 0.02 | 0.32 | 0.30 | 75 | 1011.9 |
| 20260904001616 | 57 | 0.0 | 1.0 | 0.03 | 0.32 | 0.30 | 76 | 1011.8 | |
| 20260904000616 | 57 | 135 | 1.0 | 2.0 | 0.03 | 0.32 | 0.30 | 75 | 1011.9 |
| 20260903235616 | 57 | 0.0 | 1.0 | 0.03 | 0.32 | 0.30 | 74 | 1011.8 | |
| 20260903234616 | 57 | 0.0 | 1.0 | 0.03 | 0.32 | 0.30 | 73 | 1011.8 | |
| 20260903233616 | 58 | 248 | 1.0 | 2.0 | 0.02 | 0.31 | 0.29 | 71 | 1011.9 |
| 20260903232617 | 60 | 225 | 2.0 | 4.0 | 0.01 | 0.30 | 0.28 | 68 | 1011.8 |
| 20260903231616 | 61 | 270 | 5.0 | 8.0 | 0.00 | 0.30 | 0.27 | 62 | 1011.8 |
| 20260903230637 | 62 | 315 | 2.0 | 3.0 | 0.00 | 0.31 | 0.27 | 62 | 1011.7 |
| 20260903225636 | 62 | 248 | 2.0 | 2.0 | 0.00 | 0.33 | 0.27 | 62 | 1011.8 |
| 20260903224617 | 62 | 0.0 | 0.0 | 0.00 | 0.33 | 0.27 | 65 | 1011.8 | |
| 20260903223656 | 61 | 248 | 1.0 | 2.0 | 0.00 | 0.33 | 0.27 | 62 | 1011.9 |
| 20260903222616 | 61 | 135 | 2.0 | 3.0 | 0.00 | 0.33 | 0.27 | 63 | 1011.9 |
| 20260903221616 | 60 | 135 | 1.0 | 3.0 | 0.00 | 0.33 | 0.27 | 64 | 1012.0 |
| 20260903220616 | 60 | 180 | 2.0 | 5.0 | 0.00 | 0.33 | 0.27 | 65 | 1012.0 |
| 20260903215616 | 60 | 203 | 3.0 | 4.0 | 0.00 | 0.33 | 0.27 | 64 | 1012.0 |
| 20260903214616 | 60 | 180 | 4.0 | 6.0 | 0.00 | 0.34 | 0.27 | 64 | 1012.0 |
| 20260903213616 | 60 | 158 | 2.0 | 4.0 | 0.00 | 0.34 | 0.27 | 68 | 1012.1 |
| 20260903212616 | 59 | 203 | 2.0 | 5.0 | 0.00 | 0.34 | 0.27 | 66 | 1012.1 |
| 20260903211616 | 59 | 203 | 3.0 | 5.0 | 0.00 | 0.35 | 0.27 | 68 | 1012.1 |
| 20260903210616 | 59 | 158 | 3.0 | 5.0 | 0.00 | 0.36 | 0.27 | 69 | 1012.1 |
| 20260903205616 | 59 | 180 | 2.0 | 3.0 | 0.00 | 0.37 | 0.27 | 71 | 1012.0 |
| 20260903204636 | 59 | 113 | 2.0 | 4.0 | 0.00 | 0.38 | 0.27 | 71 | 1012.0 |
| 20260903203616 | 59 | 135 | 3.0 | 4.0 | 0.00 | 0.40 | 0.27 | 70 | 1012.0 |
| 20260903202616 | 59 | 135 | 3.0 | 8.0 | 0.00 | 0.43 | 0.27 | 71 | 1012.0 |
| 20260903201616 | 58 | 135 | 3.0 | 5.0 | 0.00 | 0.45 | 0.27 | 72 | 1011.9 |
| 20260903200636 | 59 | 180 | 3.0 | 4.0 | 0.00 | 0.47 | 0.27 | 72 | 1011.9 |
| 20260903195616 | 59 | 158 | 4.0 | 8.0 | 0.02 | 0.50 | 0.27 | 72 | 1012.0 |
| 20260903194616 | 59 | 180 | 2.0 | 3.0 | 0.10 | 0.51 | 0.27 | 75 | 1012.0 |
| 20260903193636 | 58 | 180 | 2.0 | 5.0 | 0.10 | 0.52 | 0.27 | 77 | 1012.1 |
| 20260903192616 | 57 | 248 | 4.0 | 7.0 | 0.10 | 0.53 | 0.27 | 76 | 1012.1 |
| 20260903191616 | 57 | 270 | 2.0 | 4.0 | 0.10 | 0.54 | 0.27 | 78 | 1012.0 |
| 20260903190635 | 57 | 135 | 2.0 | 4.0 | 0.10 | 0.55 | 0.27 | 77 | 1012.1 |
| 20260903185616 | 58 | 293 | 5.0 | 9.0 | 0.08 | 0.54 | 0.25 | 75 | 1012.1 |
| 20260903184615 | 59 | 203 | 2.0 | 2.0 | 0.00 | 0.48 | 0.17 | 72 | 1011.9 |
| 20260903183616 | 60 | 90 | 2.0 | 2.0 | 0.00 | 0.50 | 0.17 | 74 | 1011.9 |
| 20260903182615 | 59 | 68 | 2.0 | 3.0 | 0.00 | 0.52 | 0.17 | 76 | 1011.9 |
| 20260903181615 | 59 | 135 | 3.0 | 3.0 | 0.00 | 0.54 | 0.17 | 79 | 1012.0 |
| 20260903180616 | 59 | 90 | 2.0 | 3.0 | 0.00 | 0.57 | 0.17 | 79 | 1012.2 |
| 20260903175616 | 59 | 113 | 1.0 | 2.0 | 0.00 | 0.58 | 0.17 | 81 | 1012.1 |
| 20260903174615 | 58 | 0.0 | 2.0 | 0.00 | 0.60 | 0.17 | 84 | 1012.1 | |
| 20260903173615 | 57 | 113 | 2.0 | 3.0 | 0.00 | 0.61 | 0.17 | 84 | 1012.0 |
| 20260903172615 | 56 | 0.0 | 1.0 | 0.00 | 0.61 | 0.17 | 84 | 1012.0 | |
| 20260903171615 | 55 | 135 | 2.0 | 3.0 | 0.02 | 0.61 | 0.17 | 83 | 1012.3 |
| 20260903170616 | 55 | 90 | 1.0 | 3.0 | 0.04 | 0.61 | 0.17 | 84 | 1012.1 |
| 20260903165615 | 54 | 90 | 3.0 | 6.0 | 0.05 | 0.61 | 0.17 | 83 | 1012.2 |
| 20260903164636 | 54 | 90 | 2.0 | 4.0 | 0.06 | 0.61 | 0.17 | 83 | 1012.2 |
| 20260903163655 | 53 | 90 | 3.0 | 4.0 | 0.06 | 0.61 | 0.17 | 83 | 1012.2 |
| 20260903162635 | 53 | 158 | 3.0 | 4.0 | 0.06 | 0.61 | 0.17 | 83 | 1012.4 |
| 20260903161615 | 53 | 113 | 3.0 | 4.0 | 0.04 | 0.59 | 0.15 | 83 | 1012.3 |
| 20260903160635 | 53 | 135 | 1.0 | 2.0 | 0.03 | 0.57 | 0.13 | 82 | 1012.4 |
| 20260903155615 | 53 | 135 | 2.0 | 3.0 | 0.02 | 0.56 | 0.12 | 82 | 1012.4 |
| 20260903154615 | 53 | 113 | 1.0 | 2.0 | 0.02 | 0.55 | 0.11 | 82 | 1012.4 |
| 20260903153615 | 53 | 113 | 1.0 | 2.0 | 0.04 | 0.55 | 0.11 | 82 | 1012.2 |
| 20260903152615 | 53 | 135 | 2.0 | 2.0 | 0.05 | 0.55 | 0.11 | 81 | 1012.3 |
| 20260903151615 | 53 | 113 | 1.0 | 2.0 | 0.05 | 0.55 | 0.11 | 81 | 1012.3 |
| 20260903150615 | 53 | 135 | 4.0 | 7.0 | 0.04 | 0.54 | 0.10 | 81 | 1012.1 |
| 20260903145637 | 53 | 135 | 2.0 | 3.0 | 0.06 | 0.54 | 0.10 | 81 | 1012.2 |
| 20260903144615 | 53 | 135 | 2.0 | 7.0 | 0.07 | 0.53 | 0.09 | 81 | 1012.2 |
| 20260903143615 | 53 | 113 | 3.0 | 6.0 | 0.05 | 0.51 | 0.07 | 81 | 1012.0 |
| 20260903142615 | 53 | 135 | 1.0 | 2.0 | 0.04 | 0.50 | 0.06 | 80 | 1011.7 |
| 20260903141615 | 53 | 158 | 1.0 | 2.0 | 0.05 | 0.50 | 0.06 | 79 | 1011.6 |